Location: Newark
(55.2875°N, 3.1864°W)
Time: 19:15:01
(UTC+00:00)

ISS - Pass Details

Date: 29 January 2020
Orbit: 415 x 423 km, 51.6° (Epoch: 28 February)

Event Time Altitude Azimuth Distance (km) Brightness Sun altitude
Rises 19:46:55 0° 270° (W) 2,382 1.4 -26.1°
Reaches altitude 10° 19:49:07 10° 262° (W) 1,514 0.0 -26.4°
Enters shadow 19:50:40 23° 246° (WSW) 963 -1.4 -26.7°
